{"data":{"norad_id":53729,"epoch":"2026-05-24T21:02:11.506848Z","epoch_age_seconds":82729,"freshness":"FRESH","line1":"1 53729U 22107AF  26144.87652207  .00001916  00000+0  13849-3 0  9996","line2":"2 53729  53.2156 272.2110 0001375  81.1432 278.9716 15.08831580206085","mean_motion":15.0883158,"eccentricity":0.0001375,"inclination_deg":53.2156,"raan_deg":272.211,"arg_perigee_deg":81.1432,"mean_anomaly_deg":278.9716,"bstar":0.00013849,"rev_number":20608,"period_min":95.438087264849,"perigee_km":538.81791356304,"apogee_km":540.72033774759,"semimajor_km":6917.9061256553,"source":"CELESTRAK","updated_at":"2026-05-25T13:38:17.536824Z"}}